User: anonymous   Login
Location: Caltech
(34.1382°N, 118.1253°W)
Time: 22:50:32
(UTC-07:00)
Language:

Cosmos 1408 Rocket - Orbit

View from above orbital plane
View from above orbital plane
View from above satellite
View from above satellite

Ground track
Ground track

The orbit data is extracted from the following two-line orbital elements,

1 13553U 82092B   15090.50940578  .00000787  00000-0  91722-4 0  9998
2 13553 082.5662 267.3765 0021235 192.8604 219.3954 14.83834383757105
Epoch (UTC): 31 March 2015 12:13:32
Eccentricity: 0.0021235
inclination: 82.5662°
perigee height: 602 km
apogee height: 632 km
right ascension of ascending node: 267.3765°
argument of perigee: 192.8604°
revolutions per day: 14.83834383
mean anomaly at epoch: 219.3954°
orbit number at epoch: 75710

The dashed part of the orbit path shows where the satellite is in the earth's shadow,  

DLR